カタログに戻る

STARLINK-31191

運用中通信VLEO
NORAD 58800·PAYLOAD·🇺🇸 United States

打ち上げ Jan 15, 2024 から Cape Canaveral Space Force Station

Loading…

次のパス (今後24時間)

TLE

最新Source: CelesTrak SupGP

元期: Sep 14, 2026, 20:50 UTC

1 58800C 24012P   26257.86854167 -.00010144  00000+0 -36733-3 0  2570
2 58800  43.0013 176.5841 0001216 263.0133  26.2097 15.27590309    12

AllMySatでSTARLINK-31191をリアルタイム追跡

Download on the App Store